Notices

What's New in latest Release from April 7th, 2021:

- Updated Glossary, including Speed of Maximum Gust, and Total Hourly Precipitation

- Updated national and regional climate services offices contacts and prices information

- Addition of station inventory lists for 1981-2010, 1971-2000, and 1961-1990 Normals.

If you haven't already, please take our survey and provide feedback about our website: https://eccc.sondage-survey.ca/f/LanguageSelection.aspx?s=442ca660-fcf1-47c0-95a9-59707d6fd709

Hourly Data Report for October 20, 2019

QUALICUM BEACH AIRPORT
BRITISH COLUMBIA
Current Station Operator: ECCC - MSC

49°20'14.000" N
124°23'38.000" W
58.20 m
1026562
71766
VOQ

Download Data

Hourly Data (October 2019)
Hourly Data Report for October 20, 2019
TIME
LST
Temp Definition
°C
Dew Point Definition
°C
Rel Hum Definition
%
Precip. Amount Definition
mm

Wind Dir Definition
10's deg

Wind Spd Definition
km/h
Visibility Definition
km
Stn Press Definition
kPa
Hmdx Definition


Wind Chill Definition


Weather Definition


00:00 4.8 4.3 97 0.0 28 2   100.82     LegendNANA
01:00 4.0 3.6 97 0.0 18 2   100.86     LegendNANA
02:00 5.0 4.7 97 0.0 21 2   100.88     LegendNANA
03:00 5.4 4.8 96 0.0 26 2   100.81     LegendNANA
04:00 6.2 5.1 93 0.0 16 4   100.82     LegendNANA
05:00 6.9 5.9 93 0.0 14 10   100.75     LegendNANA
06:00 7.5 5.6 88 0.0 12 11   100.65     LegendNANA
07:00 7.5 5.5 87 0.0 12 9   100.62     LegendNANA
08:00 7.9 5.4 85 0.0 13 14   100.55     LegendNANA
09:00 8.1 6.0 87 0.0 12 10   100.46     LegendNANA
10:00 8.3 6.7 89 0.0 12 15   100.43     LegendNANA
11:00 8.5 6.5 88 0.5 13 17   100.41     LegendNANA
12:00 8.3 6.5 89 1.4 13 17   100.37     LegendNANA
13:00 9.6 7.8 89 0.0 12 11   100.31     LegendNANA
14:00 9.7 7.9 89 0.0 10 14   100.31     LegendNANA
15:00 9.4 8.1 92 0.0 12 21   100.39     LegendNANA
16:00 9.3 7.9 91 0.0 12 9   100.44     LegendNANA
17:00 9.1 7.8 92 0.0 11 7   100.54     LegendNANA
18:00 8.8 7.7 93 0.0 12 7   100.63     LegendNANA
19:00 8.6 7.8 95 0.0 14 4   100.73     LegendNANA
20:00 8.2 7.6 96 0.0 20 3   100.79     LegendNANA
21:00 8.0 7.5 97 0.0 11 5   100.84     LegendNANA
22:00 8.1 7.4 96 0.0 14 7   100.90     LegendNANA
23:00 8.5 7.8 95 0.0 13 7   100.98     LegendNANA

Notes on Data Quality.

Legend

  • E = Estimated
  • M = Missing
  • NA = Not Available*
  • [empty] = Indicates an unobserved value
Date modified: